Location: Laterina
(43.5167°N, 11.7167°E)
Time: 16:27:09
(UTC+00:00)

Cosmos 2278 Rocket - Pass Details

Date: 24 September 2020
Orbit: 841 x 845 km, 71.0° (Epoch: 25 October)

Event Time Altitude Azimuth Distance (km) Brightness Sun altitude
Rises 19:41:56 0° 206° (SSW) 3,383 5.3 -28.0°
Reaches altitude 10° 19:44:22 10° 208° (SSW) 2,452 4.6 -28.4°
Enters shadow 19:46:08 21° 210° (SSW) 1,799 3.9 -28.7°
Exits shadow 19:51:21 54° 11° (N) 1,021 2.6 -29.5°
Drops below altitude 10° 19:55:41 10° 23° (NNE) 2,468 4.7 -30.2°
Sets 19:58:08 0° 25° (NNE) 3,407 5.4 -30.5°
